Location: Arrakis Observatory
(44.1122°N, 95.7153°W)
Time: 10:37:10
(UTC-05:00)

Amateur Radio Satellites - All Passes

Search period start: 06 July 2015 10:07
Search period end: 07 July 2015 10:07
Location: Arrakis Observatory, 44.1122°N, 95.7153°W

Satellite Date Start Highest point End Downlink Frequencies (MHz)
Time Altitude Azimuth
GOMX 1 06 Jul 10:08:10 10:12:18 56° 286° (WNW) 10:16:21 467.674
Oscar 11 06 Jul 10:09:29 10:12:47 21° 92° (E) 10:16:10 145.826/435.025
CUBEBUG 2 06 Jul 10:11:36 10:14:48 21° 93° (E) 10:18:09 437.445
CUSAT 1 06 Jul 10:20:29 10:22:41 12° 293° (WNW) 10:24:26 437.405
CUTE 1.7 + AOD 2 06 Jul 10:20:38 10:24:56 75° 285° (WNW) 10:29:13 437.475
QB50P2 06 Jul 10:23:13 10:25:22 14° 63° (ENE) 10:27:41 145.880/145.840
POPSAT HIP 1 06 Jul 10:23:30 10:25:34 14° 63° (ENE) 10:27:48 437.405
CANX-2 06 Jul 10:24:21 10:28:37 62° 286° (WNW) 10:32:52 2200.000
HO-68 06 Jul 10:33:27 10:40:39 81° 288° (WNW) 10:47:49 435.675
UNISAT 6 06 Jul 10:38:25 10:42:28 43° 72° (ENE) 10:46:32 437.425
FUNcube-1 06 Jul 10:40:06 10:43:38 26° 94° (E) 10:47:16 145.935
DOVE 4 06 Jul 10:42:36 10:46:29 38° 289° (WNW) 10:50:20 437.250
BRITE-PL 06 Jul 10:44:24 10:47:06 16° 297° (WNW) 10:49:36 437.365/2234.400
PHONESAT 2.4 06 Jul 10:49:34 10:52:51 43° 174° (S) 10:56:08 2401.200-2431.200
UWE-3 06 Jul 10:57:45 11:01:53 52° 100° (E) 11:06:08 435.000/436.395/437.385
QB50P1 06 Jul 11:00:22 11:04:07 32° 69° (ENE) 11:07:55 145.935-145.965
GONETS M04 06 Jul 11:03:11 11:11:24 41° 290° (WNW) 11:19:31
SEEDS 06 Jul 11:06:06 11:09:52 30° 291° (WNW) 11:13:35 437.485
50 SAT 06 Jul 11:08:27 11:09:03 10° 88° (E) 11:09:53 437.505
AAUSAT CUBESAT 2 06 Jul 11:11:53 11:15:48 37° 289° (WNW) 11:19:40 437.432
DELFI C3 06 Jul 11:13:02 11:17:07 73° 101° (ESE) 11:21:11 145.870
CINEMA 3 06 Jul 11:13:12 11:17:07 40° 288° (WNW) 11:21:05 145.822/145.860
NANOSAT C BR1 06 Jul 11:13:28 11:17:28 43° 71° (ENE) 11:21:29 145.865
DUCHIFAT 1 06 Jul 11:19:35 11:23:39 49° 73° (ENE) 11:27:45 145.980
ANTELSAT 06 Jul 11:22:48 11:27:02 62° 259° (W) 11:31:17 437.575/2403.000
VELOX 1 06 Jul 11:24:16 11:26:49 15° 90° (E) 11:29:32 145.980
DX 1 06 Jul 11:24:58 11:28:40 27° 95° (E) 11:32:24 434.975-435.025
ISS 06 Jul 11:25:13 11:27:46 21° 359° (N) 11:30:20 145.825
POLYITAN 1 06 Jul 11:27:15 11:31:26 63° 74° (ENE) 11:35:38 437.675
BUGSAT 1 06 Jul 11:27:28 11:31:24 40° 71° (ENE) 11:35:20 437.445
TIGRISAT 06 Jul 11:34:22 11:38:30 47° 261° (W) 11:42:38 435.000
VERMONT LUNAR 06 Jul 11:40:21 11:42:54 22° 199° (SSW) 11:45:26 437.305
ZACube-1 06 Jul 11:40:37 11:44:50 68° 286° (WNW) 11:49:07 437.345
COMPASS 1 06 Jul 11:40:40 11:43:34 18° 295° (WNW) 11:46:20 437.405
HUMSAT D 06 Jul 11:42:26 11:46:32 54° 100° (E) 11:50:39 437.325/437.525
UKube-1 06 Jul 11:42:28 11:46:31 38° 98° (E) 11:50:33 .
Cosmos 2499 06 Jul 11:44:15 11:51:18 85° 277° (W) 11:58:33 435.465 / 435.565
Oscar 11 06 Jul 11:45:04 11:49:07 37° 289° (WNW) 11:53:07 145.826/435.025
CUBEBUG 2 06 Jul 11:47:45 11:51:38 36° 289° (WNW) 11:55:33 437.445
QB50P2 06 Jul 11:56:38 12:00:50 61° 259° (W) 12:05:02 145.880/145.840
POPSAT HIP 1 06 Jul 11:56:46 12:00:59 63° 259° (W) 12:05:12 437.405
AISAT 06 Jul 12:10:49 12:15:06 48° 99° (E) 12:19:22 437.250
FUNcube-1 06 Jul 12:16:16 12:19:58 30° 291° (WNW) 12:23:41 145.935
UNISAT 6 06 Jul 12:16:34 12:19:31 17° 269° (W) 12:22:20 437.425
RS-15 06 Jul 12:19:13 12:30:50 70° 242° (WSW) 12:42:51 29.354- 29.394
CUBEBUG 1 06 Jul 12:22:10 12:26:09 35° 96° (E) 12:30:09 437.445
HO-68 06 Jul 12:22:46 12:27:27 18° 307° (NW) 12:31:51 435.675
PHONESAT 2.4 06 Jul 12:27:22 12:30:35 37° 191° (S) 12:33:49 2401.200-2431.200
UWE-3 06 Jul 12:35:27 12:38:06 16° 295° (WNW) 12:40:37 435.000/436.395/437.385
QB50P1 06 Jul 12:36:33 12:40:02 24° 266° (W) 12:43:28 145.935-145.965
50 SAT 06 Jul 12:40:16 12:44:09 64° 286° (WNW) 12:48:02 437.505
YUBILEINY 06 Jul 12:43:43 12:46:48 12° 50° (NE) 12:50:29 435.215
DELFI C3 06 Jul 12:50:17 12:51:41 11° 298° (WNW) 12:52:54 145.870
ESTCUBE 1 06 Jul 12:50:25 12:55:00 83° 102° (ESE) 12:59:32 437.505/2401.250
NANOSAT C BR1 06 Jul 12:50:35 12:53:32 18° 269° (W) 12:56:22 145.865
DUCHIFAT 1 06 Jul 12:57:09 12:59:47 16° 270° (W) 13:02:16 145.980
VELOX 1 06 Jul 12:59:26 13:03:46 53° 288° (WNW) 13:08:02 145.980
DX 1 06 Jul 13:01:06 13:04:54 29° 292° (WNW) 13:08:38 434.975-435.025
ISS 06 Jul 13:01:49 13:04:48 33° 19° (NNE) 13:07:48 145.825
BUGSAT 1 06 Jul 13:03:58 13:07:03 19° 268° (W) 13:10:00 437.445
POLYITAN 1 06 Jul 13:05:59 13:07:50 12° 272° (W) 13:09:28 437.675
SPROUT 06 Jul 13:15:52 13:19:53 39° 97° (E) 13:23:54 437.525
UKube-1 06 Jul 13:19:05 13:22:27 22° 294° (WNW) 13:25:41 .
HUMSAT D 06 Jul 13:19:25 13:21:53 15° 296° (WNW) 13:24:15 437.325/437.525
Oscar 19 06 Jul 13:19:27 13:24:11 40° 69° (ENE) 13:28:59 437.125/150
ITAMSAT 1 06 Jul 13:37:16 13:40:45 19° 61° (ENE) 13:44:24 435.822/435.867
Cosmos 2499 06 Jul 13:41:37 13:45:53 16° 303° (WNW) 13:49:51 435.465 / 435.565
Gurwin Techsat 1B 06 Jul 13:43:18 13:47:13 22° 63° (ENE) 13:51:17 435.225
AISAT 06 Jul 13:48:17 13:51:21 18° 296° (WNW) 13:54:17 437.250
TISAT 1 06 Jul 13:48:49 13:52:58 58° 101° (E) 13:57:05 437.305
AO-7 06 Jul 13:54:42 13:58:42 15° 43° (NE) 14:03:02 29.400- 29.500
SWISSCUBE 06 Jul 13:55:24 13:57:40 14° 88° (E) 14:00:11 437.505
CUBEBUG 1 06 Jul 13:58:51 14:02:22 24° 293° (WNW) 14:05:46 437.445
ITUPSAT 1 06 Jul 14:01:38 14:04:05 14° 88° (E) 14:06:46 437.325
PHONESAT 2.4 06 Jul 14:06:00 14:08:05 15° 207° (SSW) 14:10:08 2401.200-2431.200
BEESAT 3 06 Jul 14:26:08 14:27:56 13° 34° (NNE) 14:29:50 437.485
ESTCUBE 1 06 Jul 14:29:24 14:31:16 12° 300° (WNW) 14:32:57 437.505/2401.250
RS-15 06 Jul 14:34:31 14:41:32 17° 261° (W) 14:47:43 29.354- 29.394
JAS-2 06 Jul 14:35:32 14:38:52 18° 59° (ENE) 14:42:32 435.910
YUBILEINY 06 Jul 14:37:33 14:46:09 58° 75° (ENE) 14:54:49 435.215
ISS 06 Jul 14:38:09 14:41:17 47° 218° (SW) 14:44:25 145.825
BEESAT 2 06 Jul 14:41:16 14:43:23 14° 35° (NE) 14:45:36 435.950
SPROUT 06 Jul 14:52:30 14:55:45 21° 294° (WNW) 14:58:52 437.525
AIST 1 06 Jul 14:59:12 15:01:08 13° 85° (E) 15:03:16
Oscar 19 06 Jul 14:59:20 15:03:41 27° 266° (W) 15:07:59 437.125/150
Cosmos 2491 06 Jul 15:01:49 15:09:39 39° 87° (E) 15:17:38 435.465 / 435.565
ITAMSAT 1 06 Jul 15:14:36 15:19:48 65° 258° (WSW) 15:25:02 435.822/435.867
BEESAT 06 Jul 15:15:18 15:20:08 76° 103° (ESE) 15:24:56 436.000
Gurwin Techsat 1B 06 Jul 15:21:38 15:26:51 56° 260° (W) 15:32:06 435.225
TISAT 1 06 Jul 15:25:58 15:28:18 14° 297° (WNW) 15:30:29 437.305
SWISSCUBE 06 Jul 15:31:19 15:36:07 70° 287° (WNW) 15:40:54 437.505
ITUPSAT 1 06 Jul 15:37:45 15:42:34 68° 286° (WNW) 15:47:20 437.325
AO-7 06 Jul 15:41:48 15:49:50 56° 64° (ENE) 15:57:59 29.400- 29.500
KKS-1 06 Jul 15:53:22 15:57:22 33° 96° (E) 16:01:23 437.445
HORYU 2 06 Jul 15:54:14 15:58:27 47° 71° (ENE) 16:02:43 437.375
PCSat 06 Jul 16:01:07 16:06:27 64° 117° (ESE) 16:11:50 145.827
BEESAT 3 06 Jul 16:02:34 16:06:39 75° 54° (NE) 16:10:39 437.485
AIST 2 06 Jul 16:13:58 16:17:28 25° 43° (NE) 16:20:57 435.215
BEESAT 2 06 Jul 16:18:01 16:22:08 84° 54° (NE) 16:26:11 435.950
JAS-2 06 Jul 16:18:18 16:23:26 67° 258° (WSW) 16:28:56 435.910
Cosmos 2504 06 Jul 16:33:26 16:40:12 36° 71° (ENE) 16:47:30 435.465 / 435.565
AIST 1 06 Jul 16:33:58 16:38:19 60° 281° (W) 16:42:42
YUBILEINY 06 Jul 16:35:02 16:42:37 33° 275° (W) 16:50:01 435.215
STARS 06 Jul 16:39:27 16:43:48 63° 101° (E) 16:48:09 437.465
O/OREOS (USA 219) 06 Jul 16:48:40 16:52:48 34° 58° (ENE) 16:56:57 437.305
SO-50 06 Jul 16:52:14 16:56:46 49° 119° (ESE) 17:01:30 436.795
BEESAT 06 Jul 16:54:47 16:57:25 14° 299° (WNW) 16:59:53 436.000
Cosmos 2491 06 Jul 16:57:51 17:06:23 50° 287° (WNW) 17:14:52 435.465 / 435.565
Cubesat XI-IV 06 Jul 17:05:41 17:07:44 13° 57° (ENE) 17:10:02 437.490
KKS-1 06 Jul 17:30:12 17:33:53 26° 293° (WNW) 17:37:29 437.445
HORYU 2 06 Jul 17:32:21 17:35:24 18° 269° (W) 17:38:18 437.375
AO-7 06 Jul 17:35:25 17:43:00 36° 264° (W) 17:50:30 29.400- 29.500
BEESAT 3 06 Jul 17:42:47 17:44:04 11° 250° (WSW) 17:45:07 437.485
PCSat 06 Jul 17:45:54 17:50:21 24° 318° (NW) 17:54:43 145.827
AIST 2 06 Jul 17:52:12 17:56:12 42° 242° (WSW) 18:00:07 435.215
MOZHAYETS 4 06 Jul 18:03:39 18:08:20 85° 103° (ESE) 18:12:59
CUTE-I 06 Jul 18:07:15 18:12:10 39° 68° (ENE) 18:17:11 437.470
STARS 06 Jul 18:17:19 18:19:49 15° 298° (WNW) 18:22:08 437.465
Cosmos 2504 06 Jul 18:25:25 18:32:37 49° 269° (W) 18:40:14 435.465 / 435.565
O/OREOS (USA 219) 06 Jul 18:28:18 18:32:07 26° 256° (WSW) 18:35:51 437.305
SO-50 06 Jul 18:33:24 18:37:35 28° 319° (NW) 18:41:48 436.795
CUBESAT XI-V 06 Jul 18:37:57 18:41:02 18° 90° (E) 18:44:16 437.345
Cubesat XI-IV 06 Jul 18:41:41 18:47:02 78° 75° (ENE) 18:52:28 437.490
BRITE-PL 06 Jul 18:42:27 18:43:25 11° 60° (ENE) 18:44:39 437.365/2234.400
DANDE 06 Jul 18:49:30 18:50:55 13° 67° (ENE) 18:52:21 436.750
Cosmos 2491 06 Jul 19:04:33 19:06:09 10° 314° (NW) 19:07:06 435.465 / 435.565
CUSAT 1 06 Jul 19:10:03 19:12:36 47° 76° (ENE) 19:15:10 437.405
GONETS M04 06 Jul 19:14:39 19:21:25 25° 62° (ENE) 19:28:26
HO-68 06 Jul 19:18:34 19:23:15 20° 54° (NE) 19:28:11 435.675
PRISM 06 Jul 19:25:50 19:28:07 15° 90° (E) 19:30:34 437.425
GOMX 1 06 Jul 19:40:32 19:44:11 21° 67° (ENE) 19:47:48 467.674
MOZHAYETS 4 06 Jul 19:42:59 19:44:57 12° 299° (WNW) 19:46:41
CUTE 1.7 + AOD 2 06 Jul 19:43:26 19:43:34 10° 61° (ENE) 19:43:55 437.475
CANX-2 06 Jul 19:45:40 19:47:14 12° 62° (ENE) 19:48:59 2200.000
CUTE-I 06 Jul 19:47:41 19:52:22 29° 266° (W) 19:57:01 437.470
DOVE 4 06 Jul 20:12:21 20:16:11 26° 68° (ENE) 20:19:58 437.250
CUBESAT XI-V 06 Jul 20:14:16 20:18:51 51° 288° (WNW) 20:23:20 437.345
BRITE-PL 06 Jul 20:15:55 20:21:18 72° 75° (ENE) 20:26:19 437.365/2234.400
SEEDS 06 Jul 20:24:22 20:27:34 22° 67° (ENE) 20:30:51 437.485
Cubesat XI-IV 06 Jul 20:24:51 20:27:52 14° 273° (W) 20:30:38 437.490
AAUSAT CUBESAT 2 06 Jul 20:29:42 20:32:24 17° 65° (ENE) 20:35:13 437.432
STRAND 1 06 Jul 20:30:40 20:35:51 75° 103° (ESE) 20:40:58 437.568
DANDE 06 Jul 20:32:29 20:34:01 14° 269° (W) 20:35:26 436.750
CINEMA 3 06 Jul 20:40:12 20:43:32 22° 67° (ENE) 20:46:52 145.822/145.860
COMPASS 1 06 Jul 20:56:43 21:00:33 38° 71° (ENE) 21:04:27 437.405
PRISM 06 Jul 20:59:50 21:03:56 51° 287° (WNW) 21:07:59 437.425
HO-68 06 Jul 21:02:59 21:10:08 87° 73° (ENE) 21:17:20 435.675
ZACube-1 06 Jul 21:04:54 21:06:16 12° 62° (ENE) 21:07:50 437.345
Oscar 11 06 Jul 21:06:03 21:09:13 21° 66° (ENE) 21:12:28 145.826/435.025
GONETS M04 06 Jul 21:10:39 21:19:21 77° 265° (W) 21:27:59
CUBEBUG 2 06 Jul 21:11:43 21:14:56 22° 67° (ENE) 21:18:12 437.445
CUTE 1.7 + AOD 2 06 Jul 21:14:38 21:18:51 88° 248° (WSW) 21:23:07 437.475
GOMX 1 06 Jul 21:17:10 21:22:05 48° 261° (W) 21:26:42 467.674
CANX-2 06 Jul 21:18:26 21:22:38 72° 258° (WSW) 21:26:53 2200.000
AUBIESAT-1 06 Jul 21:21:35 21:24:08 16° 96° (E) 21:26:58 437.475
Cosmos 2499 06 Jul 21:32:13 21:39:25 38° 71° (ENE) 21:47:12 435.465 / 435.565
FUNcube-1 06 Jul 21:37:41 21:41:02 24° 68° (ENE) 21:44:27 145.935
DOVE 4 06 Jul 21:49:27 21:53:52 35° 263° (W) 21:58:02 437.250
UWE-3 06 Jul 21:56:24 22:00:29 50° 73° (ENE) 22:04:32 435.000/436.395/437.385
BRITE-PL 06 Jul 21:57:06 22:00:18 15° 271° (W) 22:03:09 437.365/2234.400
M-CUBED/EXP-1 PRIME 06 Jul 21:57:11 22:01:15 41° 104° (ESE) 22:05:36 437.505
SEEDS 06 Jul 21:59:20 22:03:11 34° 264° (W) 22:07:02 437.485
DELFI C3 06 Jul 22:01:28 22:05:21 52° 73° (ENE) 22:09:18 145.870
AAUSAT CUBESAT 2 06 Jul 22:03:43 22:07:41 45° 262° (W) 22:11:42 437.432
STRAND 1 06 Jul 22:11:19 22:14:30 16° 300° (WNW) 22:17:30 437.568
CINEMA 3 06 Jul 22:16:26 22:20:35 37° 263° (W) 22:24:35 145.822/145.860
ESTCUBE 1 06 Jul 22:18:18 22:19:34 11° 60° (ENE) 22:21:03 437.505/2401.250
DX 1 06 Jul 22:21:57 22:25:45 30° 68° (ENE) 22:29:36 434.975-435.025
VELOX 1 06 Jul 22:23:22 22:26:22 18° 64° (ENE) 22:29:29 145.980
COMPASS 1 06 Jul 22:33:20 22:36:24 19° 269° (W) 22:39:23 437.405
HUMSAT D 06 Jul 22:35:36 22:39:29 45° 72° (ENE) 22:43:25 437.325/437.525
ZACube-1 06 Jul 22:37:57 22:42:08 72° 258° (WSW) 22:46:18 437.345
UKube-1 06 Jul 22:38:34 22:42:37 40° 70° (ENE) 22:46:43 .
Oscar 11 06 Jul 22:41:07 22:45:09 39° 262° (W) 22:49:14 145.826/435.025
CUBEBUG 2 06 Jul 22:47:34 22:51:29 35° 263° (W) 22:55:19 437.445
HO-68 06 Jul 22:54:08 22:58:54 18° 273° (W) 23:03:19 435.675
AUBIESAT-1 06 Jul 22:54:57 22:59:10 58° 291° (WNW) 23:03:38 437.475
PCSat 06 Jul 23:05:16 23:08:27 16° 34° (NE) 23:11:46 145.827
AISAT 06 Jul 23:09:46 23:14:07 53° 72° (ENE) 23:18:29 437.250
GONETS M04 06 Jul 23:10:09 23:14:51 15° 284° (WNW) 23:19:00
ANTELSAT 06 Jul 23:13:22 23:16:54 24° 93° (E) 23:20:35 437.575/2403.000
FUNcube-1 06 Jul 23:13:34 23:17:17 30° 265° (W) 23:20:57 145.935
CUBEBUG 1 06 Jul 23:19:34 23:23:37 36° 70° (ENE) 23:27:42 437.445
TIGRISAT 06 Jul 23:24:20 23:28:09 29° 95° (E) 23:32:06 435.000
Cosmos 2499 06 Jul 23:25:14 23:32:46 48° 269° (W) 23:40:45 435.465 / 435.565
50 SAT 06 Jul 23:25:27 23:29:17 85° 78° (ENE) 23:33:09 437.505
M-CUBED/EXP-1 PRIME 06 Jul 23:32:30 23:35:53 23° 298° (WNW) 23:39:21 437.505
UWE-3 06 Jul 23:34:55 23:37:23 15° 271° (W) 23:39:38 435.000/436.395/437.385
DELFI C3 06 Jul 23:38:47 23:40:50 13° 271° (W) 23:42:42 145.870
QB50P2 06 Jul 23:41:12 23:44:11 19° 92° (E) 23:47:16 145.880/145.840
POPSAT HIP 1 06 Jul 23:41:17 23:44:11 18° 92° (E) 23:47:10 437.405
SO-50 06 Jul 23:42:44 23:45:40 16° 31° (NNE) 23:48:41 436.795
ESTCUBE 1 06 Jul 23:51:14 23:55:47 90° 37° (NE) 00:00:22 437.505/2401.250
DX 1 06 Jul 23:58:12 00:02:00 27° 265° (W) 00:05:44 434.975-435.025
VELOX 1 06 Jul 23:58:14 00:02:35 50° 260° (W) 00:06:56 145.980
UNISAT 6 07 Jul 00:04:49 00:09:15 82° 103° (ESE) 00:13:46 437.425
SPROUT 07 Jul 00:11:23 00:15:20 37° 71° (ENE) 00:19:19 437.525
HUMSAT D 07 Jul 00:12:57 00:15:31 16° 270° (W) 00:17:58 437.325/437.525
UKube-1 07 Jul 00:15:40 00:18:56 20° 268° (W) 00:22:07 .
QB50P1 07 Jul 00:19:10 00:23:15 47° 99° (E) 00:27:19 145.935-145.965
NANOSAT C BR1 07 Jul 00:32:14 00:36:25 66° 101° (E) 00:40:36 145.865
DUCHIFAT 1 07 Jul 00:38:13 00:42:25 75° 102° (ESE) 00:46:36 145.980
RS-15 07 Jul 00:39:04 00:44:07 15° 98° (E) 00:50:06 29.354- 29.394
TISAT 1 07 Jul 00:42:07 00:46:14 53° 73° (ENE) 00:50:22 437.305
BUGSAT 1 07 Jul 00:43:18 00:47:17 55° 100° (E) 00:51:14 437.445
POLYITAN 1 07 Jul 00:46:48 00:51:02 84° 284° (WNW) 00:55:15 437.675
PCSat 07 Jul 00:47:31 00:52:57 70° 56° (NE) 00:58:21 145.827
AISAT 07 Jul 00:48:13 00:51:04 16° 270° (W) 00:53:44 437.250
BEESAT 07 Jul 00:48:25 00:50:39 14° 60° (ENE) 00:53:05 436.000
ANTELSAT 07 Jul 00:49:46 00:53:47 35° 290° (WNW) 00:57:51 437.575/2403.000
CUBEBUG 1 07 Jul 00:56:30 01:00:05 23° 267° (W) 01:03:35 437.445
TIGRISAT 07 Jul 01:01:05 01:04:52 28° 291° (WNW) 01:08:39 435.000
SWISSCUBE 07 Jul 01:03:07 01:06:30 20° 64° (ENE) 01:10:01 437.505
ITUPSAT 1 07 Jul 01:09:39 01:13:08 21° 64° (ENE) 01:16:45 437.325
Cosmos 2491 07 Jul 01:10:17 01:16:21 21° 58° (ENE) 01:22:45 435.465 / 435.565
POPSAT HIP 1 07 Jul 01:16:18 01:20:16 40° 289° (WNW) 01:24:12 437.405
QB50P2 07 Jul 01:16:18 01:20:16 39° 289° (WNW) 01:24:11 145.880/145.840
SO-50 07 Jul 01:22:13 01:27:12 67° 53° (NE) 01:32:04 436.795
Oscar 19 07 Jul 01:31:27 01:33:11 12° 86° (E) 01:35:13 437.125/150
UNISAT 6 07 Jul 01:43:49 01:45:30 12° 298° (WNW) 01:46:58 437.425
SPROUT 07 Jul 01:48:13 01:51:33 21° 268° (W) 01:54:49 437.525
YUBILEINY 07 Jul 01:51:15 01:53:18 11° 73° (ENE) 01:56:03 435.215
QB50P1 07 Jul 01:55:58 01:58:47 17° 295° (WNW) 02:01:28 145.935-145.965
NANOSAT C BR1 07 Jul 02:09:44 02:11:47 13° 298° (WNW) 02:13:39 145.865
DUCHIFAT 1 07 Jul 02:16:08 02:17:41 12° 298° (WNW) 02:19:03 145.980
TISAT 1 07 Jul 02:19:55 02:22:22 15° 270° (W) 02:24:39 437.305
BUGSAT 1 07 Jul 02:20:08 02:22:22 14° 296° (WNW) 02:24:25 437.445
BEESAT 07 Jul 02:23:07 02:27:54 81° 257° (WSW) 02:32:44 436.000
PCSat 07 Jul 02:32:13 02:35:51 18° 254° (WSW) 02:39:18 145.827
SWISSCUBE 07 Jul 02:39:20 02:44:01 52° 261° (W) 02:48:43 437.505
AIST 1 07 Jul 02:39:42 02:43:46 37° 75° (ENE) 02:47:48
RS-15 07 Jul 02:43:48 02:54:33 70° 118° (ESE) 03:05:42 29.354- 29.394
ITUPSAT 1 07 Jul 02:46:04 02:50:43 49° 261° (W) 02:55:24 437.325
KKS-1 07 Jul 02:52:52 02:56:57 37° 69° (ENE) 03:01:04 437.445
SO-50 07 Jul 03:03:57 03:07:16 18° 249° (WSW) 03:10:23 436.795
Cosmos 2491 07 Jul 03:05:55 03:14:43 89° 82° (E) 03:23:27 435.465 / 435.565
Oscar 19 07 Jul 03:08:11 03:13:21 86° 281° (W) 03:18:29 437.125/150
JAS-2 07 Jul 03:25:06 03:29:25 18° 88° (E) 03:34:20 435.910
ITAMSAT 1 07 Jul 03:26:04 03:30:57 40° 97° (E) 03:35:50 435.822/435.867
MOZHAYETS 4 07 Jul 03:33:17 03:34:48 12° 60° (ENE) 03:36:34
Gurwin Techsat 1B 07 Jul 03:36:11 03:41:23 53° 99° (E) 03:46:35 435.225
STARS 07 Jul 03:37:33 03:41:54 67° 74° (ENE) 03:46:16 437.465
YUBILEINY 07 Jul 03:40:01 03:48:30 63° 92° (E) 03:57:04 435.215
AO-7 07 Jul 03:44:05 03:47:52 14° 84° (E) 03:52:14 29.400- 29.500
AIST 1 07 Jul 04:18:00 04:21:11 20° 272° (W) 04:24:13
KKS-1 07 Jul 04:30:09 04:33:43 23° 267° (W) 04:37:12 437.445
Oscar 19 07 Jul 04:49:39 04:52:00 13° 302° (WNW) 04:54:08 437.125/150
RS-15 07 Jul 04:57:26 05:07:48 43° 325° (NW) 05:18:31 29.354- 29.394
Cosmos 2491 07 Jul 05:04:37 05:10:30 19° 282° (WNW) 05:15:56 435.465 / 435.565
ITAMSAT 1 07 Jul 05:05:52 05:10:20 29° 295° (WNW) 05:14:41 435.822/435.867
MOZHAYETS 4 07 Jul 05:06:48 05:11:24 87° 257° (WSW) 05:16:03
Cosmos 2504 07 Jul 05:08:02 05:12:59 22° 83° (E) 05:18:11 435.465 / 435.565
JAS-2 07 Jul 05:08:29 05:15:13 88° 285° (WNW) 05:22:44 435.910
Gurwin Techsat 1B 07 Jul 05:16:53 05:21:03 23° 297° (WNW) 05:25:05 435.225
STARS 07 Jul 05:16:55 05:18:53 12° 272° (W) 05:20:37 437.465
HORYU 2 07 Jul 05:20:05 05:24:35 79° 103° (ESE) 05:29:04 437.375
AO-7 07 Jul 05:33:58 05:42:22 73° 105° (ESE) 05:50:42 29.400- 29.500
YUBILEINY 07 Jul 05:38:27 05:46:01 31° 295° (WNW) 05:53:26 435.215
CUBESAT XI-V 07 Jul 05:42:46 05:46:17 22° 65° (ENE) 05:49:56 437.345
STRAND 1 07 Jul 06:11:07 06:14:26 18° 61° (ENE) 06:17:56 437.568
BEESAT 2 07 Jul 06:16:10 06:16:51 10° 109° (ESE) 06:17:46 435.950
PRISM 07 Jul 06:17:46 06:20:01 15° 63° (ENE) 06:22:26 437.425
CUTE-I 07 Jul 06:24:26 06:26:48 13° 86° (E) 06:29:28 437.470
JAS-2 07 Jul 06:55:06 06:59:41 19° 300° (WNW) 07:04:19 435.910
Cosmos 2504 07 Jul 06:57:44 07:04:35 64° 282° (WNW) 07:11:31 435.465 / 435.565
Cubesat XI-IV 07 Jul 06:57:58 07:02:29 28° 93° (E) 07:07:05 437.490
HORYU 2 07 Jul 06:58:41 07:00:40 13° 299° (WNW) 07:02:27 437.375
O/OREOS (USA 219) 07 Jul 07:02:49 07:06:35 28° 105° (ESE) 07:10:27 437.305
RS-15 07 Jul 07:15:09 07:24:11 26° 358° (N) 07:33:31 29.354- 29.394
ISS 07 Jul 07:18:21 07:20:53 21° 137° (SE) 07:23:27 145.825
CUBESAT XI-V 07 Jul 07:18:57 07:23:28 45° 262° (W) 07:28:00 437.345
VERMONT LUNAR 07 Jul 07:27:30 07:30:03 23° 161° (SSE) 07:32:37 437.305
AO-7 07 Jul 07:27:34 07:34:35 30° 305° (NW) 07:41:23 29.400- 29.500
BEESAT 3 07 Jul 07:33:44 07:37:49 87° 124° (SE) 07:41:56 437.485
STRAND 1 07 Jul 07:48:03 07:53:11 67° 259° (W) 07:58:20 437.568
BEESAT 2 07 Jul 07:50:14 07:54:21 81° 304° (NW) 07:58:31 435.950
PRISM 07 Jul 07:50:54 07:55:01 58° 259° (WSW) 07:59:11 437.425
AIST 2 07 Jul 07:51:29 07:55:04 27° 115° (ESE) 07:58:44 435.215
DANDE 07 Jul 07:58:45 08:04:57 39° 96° (E) 08:09:50 436.750
CUTE-I 07 Jul 08:02:16 08:07:40 83° 287° (WNW) 08:13:02 437.470
AUBIESAT-1 07 Jul 08:11:11 08:13:38 19° 61° (ENE) 08:16:17 437.475
CUSAT 1 07 Jul 08:16:17 08:22:20 73° 100° (E) 08:26:53 437.405
GONETS M04 07 Jul 08:18:46 08:25:29 27° 82° (E) 08:32:29
BRITE-PL 07 Jul 08:20:50 08:23:31 17° 89° (E) 08:26:17 437.365/2234.400
PHONESAT 2.4 07 Jul 08:29:03 08:31:26 18° 156° (SSE) 08:33:53 2401.200-2431.200
HO-68 07 Jul 08:31:18 08:34:44 14° 85° (E) 08:38:37 435.675
Cubesat XI-IV 07 Jul 08:37:42 08:42:46 42° 292° (WNW) 08:47:45 437.490
O/OREOS (USA 219) 07 Jul 08:41:58 08:45:58 31° 303° (WNW) 08:49:57 437.305
M-CUBED/EXP-1 PRIME 07 Jul 08:47:31 08:50:48 61° 69° (ENE) 08:54:18 437.505
ISS 07 Jul 08:53:52 08:57:04 55° 334° (NNW) 09:00:16 145.825
Cosmos 2504 07 Jul 08:56:45 08:58:38 11° 306° (NW) 09:00:03 435.465 / 435.565
CUTE 1.7 + AOD 2 07 Jul 08:59:40 09:02:01 15° 89° (E) 09:04:32 437.475
CANX-2 07 Jul 09:03:06 09:05:59 18° 91° (E) 09:08:59 2200.000
VERMONT LUNAR 07 Jul 09:03:37 09:06:35 42° 178° (S) 09:09:34 437.305
BEESAT 3 07 Jul 09:13:55 09:16:22 15° 324° (NW) 09:18:44 437.485
GOMX 1 07 Jul 09:17:40 09:21:36 39° 97° (E) 09:25:32 467.674
AIST 2 07 Jul 09:29:35 09:33:33 35° 313° (NW) 09:37:30 435.215
RS-15 07 Jul 09:30:23 09:40:53 39° 31° (NNE) 09:51:56 29.354- 29.394
BEESAT 2 07 Jul 09:30:54 09:33:07 14° 325° (NW) 09:35:14 435.950
SEEDS 07 Jul 09:41:49 09:45:41 33° 96° (E) 09:49:35 437.485
DANDE 07 Jul 09:42:17 09:48:07 32° 286° (WNW) 09:52:39 436.750
CUTE-I 07 Jul 09:44:27 09:47:01 13° 303° (WNW) 09:49:19 437.470
AAUSAT CUBESAT 2 07 Jul 09:45:18 09:48:45 25° 93° (E) 09:52:17 437.432
AUBIESAT-1 07 Jul 09:45:21 09:48:17 27° 259° (W) 09:51:19 437.475
DOVE 4 07 Jul 09:46:30 09:50:33 50° 99° (E) 09:54:39 437.250
BRITE-PL 07 Jul 09:58:21 10:02:25 42° 289° (WNW) 10:06:20 437.365/2234.400
